Regional Weather Roundup
Issued by NWS State College, PA

Home | Current Version | Previous Version | Graphics & Text | Print | Product List | Glossary Off
Versions: 1 2 3 4 5 6 7 8 9 10 11 12 13 14 15 16 17 18 19 20 21 22 23 24 25 26 27 28 29 30 31 32 33 34 35 36 37 38 39 40 41 42 43 44 45 46 47 48 49 50

000
ASUS41 KCTP 301110
RWRCTP

REGIONAL WEATHER ROUNDUP
NATIONAL WEATHER SERVICE STATE COLLEGE PA
700 AM EDT TUE SEP 30 2014

Note: "fair" indicates few or no clouds below 12,000 feet with no
significant weather and/or obstructions to visibility.

* = STATION THAT DOES NOT REPORT PRECIPITATION /E.G. RAIN...SNOW...ETC/
    THUNDER OR FOG.

PAZ002>004-007>009-013>016-020>023-029>032-301200-
WESTERN PENNSYLVANIA

CITY           SKY/WX    TMP DP  RH WIND       PRES   REMARKS
ERIE           MOCLDY    59  52  77 S6        29.87S
MEADVILLE      MOCLDY    56  52  86 S3        29.90R
FRANKLIN*      MOCLDY    50  46  87 CALM      29.92S
NEW CASTLE       N/A     48  48 100 CALM      29.91S FOG
BEAVER COUNTY  CLEAR     55  54  94 CALM      29.90  FOG
BUTLER*        CLEAR     50  46  87 CALM      29.91F
PITTSBURGH INT PTCLDY    53  50  89 CALM      29.89S
PITTSBURGH     CLEAR     58  55  90 S5        29.90R FOG
INDIANA*       PTCLDY    52  50  93 CALM      29.95S
LATROBE        PTCLDY    54  54 100 CALM      29.92S
WASHINGTON CO* CLOUDY    48  46  93 CALM      29.92R VSB<1/4
$$

PAZ004>006-010>012-017>019-024>028-033>037-041-042-045-046-049>053-301200-
CENTRAL PENNSYLVANIA

CITY           SKY/WX    TMP DP  RH WIND       PRES   REMARKS
BRADFORD       FOG       45  44  97 CALM      29.93R VSB 1/4
DUBOIS         CLEAR     53  52  96 E5        29.91S
CLEARFIELD     FOG       48  48 100 CALM      29.93S VSB 1/4
JOHNSTOWN      CLEAR     57  52  83 SW6       29.94R
ALTOONA        MOCLDY    56  55  97 CALM      29.93R FOG
STATE COLLEGE  CLOUDY    54  54 100 CALM      29.92R FOG
WILLIAMSPORT   FOG       58  56  93 N3        29.91R VSB 1/4
SELINSGROVE    FOG       57  56  96 CALM      29.92R VSB 1/4
FT INDIANTOWN  CLOUDY    61  61 100 NE1       29.93R FOG
CAPITAL CITY   CLOUDY    63  61  93 CALM      29.92R FOG
HARRISBURG     CLOUDY    61  60  97 CALM      29.91R FOG
YORK           CLOUDY    57  57 100 CALM      29.92R FOG
$$

PAZ038>040-043-044-047-048-054-055-060>062-067>071-301200-
EASTERN PENNSYLVANIA

CITY           SKY/WX    TMP DP  RH WIND       PRES   REMARKS
SCRANTON       CLEAR     58  54  86 E3        29.93R FOG
MOUNT POCONO   FOG       54  52  93 CALM      29.96R VSB 1/4
ALLENTOWN      FOG       57  56  96 CALM      29.94R VSB 1/4
QUAKERTOWN*    CLOUDY    57  57 100 CALM      29.95R VSB<1/4
READING        CLOUDY    61  58  90 CALM      29.92S FOG
LANCASTER      FOG       60  60 100 E3        29.92S VSB 1/4
COATESVILLE    CLOUDY    63  63 100 SE3       29.95R FOG
POTTSTOWN      CLOUDY    57  56  96 CALM      29.95R FOG
BLUE BELL      CLOUDY    61  59  94 CALM      29.93R
DOYLESTOWN     FOG       58  58 100 CALM      29.94R VSB 3/4
WILLOW GROVE   NOT AVBL
NORTH PHILA    CLOUDY    63  58  83 CALM      29.96R
PHILADELPHIA   CLOUDY    65  61  87 SE3       29.93S
$$


USA.gov is the U.S. government's official web portal to all federal, state and local government web resources and services.